Regional Weather Roundup
Issued by NWS

Home | Current Version | Previous Version | Graphics & Text | Print | Product List | Glossary On
Versions: 1 2 3 4 5 6 7 8 9 10 11 12 13 14 15 16 17 18 19 20 21 22 23 24 25 26 27 28 29 30 31 32 33 34 35 36 37 38 39 40 41 42 43 44 45 46 47 48 49 50
000
ASUS43 KDMX 300801
RWRIA

WEATHER ROUNDUP FOR IOWA
NATIONAL WEATHER SERVICE DES MOINES IA
300 AM CDT THU MAR 30 2017

NOTE: "FAIR" INDICATES FEW OR NO CLOUDS BELOW 12,000 FEET WITH NO
SIGNIFICANT WEATHER AND/OR OBSTRUCTIONS TO VISIBILITY.

* - THESE STATIONS ARE NOT NWS STATIONS...THUS NOT UNDER NWS
QUALITY CONTROL.  THEY ALSO DO NOT REPORT WEATHER SUCH
AS PRECIPITATION OR FOG.

IAZ001>003-012>014-020>022-031>034-043>046-300900-
   NORTHWEST IOWA

CITY           SKY/WX    TMP DP  RH WIND       PRES   REMARKS
CARROLL *      CLOUDY    39  39 100 E18G24    29.76F FOG     WCI  30
CHEROKEE *     CLOUDY    38  38  98 NE14      29.84F WCI  30
DENISON *      CLOUDY    39  39 100 NE20G32   29.76F FOG     WCI  30
LE MARS *      CLOUDY    39  37  93 NE16      29.85F WCI  30
ORANGE CITY *  CLOUDY    37  37 100 E14       29.86F FOG     WCI  29
SHELDON *      CLOUDY    39  37  93 E16       29.86F FOG     WCI  30
SIOUX CITY     CLOUDY    40  38  93 NE16G23   29.82F WCI  31
SPENCER        CLOUDY    39  37  92 E22       29.87F WCI  29
STORM LAKE *   CLOUDY    37  37 100 E23G29    29.81F WCI  26
$$

IAZ055>058-069>071-079>083-090>094-300900-
   SOUTHWEST IOWA

CITY           SKY/WX    TMP DP  RH WIND       PRES   REMARKS
ATLANTIC *     CLOUDY    43  41  93 NE18G28   29.69S
AUDUBON *      CLOUDY    39  37  93 NE16G24   29.73R FOG     WCI  30
CLARINDA *     CLOUDY    45  45 100 E12G20    29.65F
COUNCIL BLFS * CLOUDY    43  43 100 N13       29.72R
CRESTON *      CLOUDY    43  43 100 E26G35    29.66F FOG
HARLAN  *      CLOUDY    41  41 100 NE18G24   29.74S
LAMONI         CLOUDY    44  43  96 E12G29    29.64F
RED OAK *      CLOUDY    45  43  93 NE16      29.68R
SHENANDOAH *   CLOUDY    45  43  93 NE14G20   29.66F
$$

IAZ047>049-059>061-072>074-084-300900-
   CENTRAL IOWA

CITY           SKY/WX    TMP DP  RH WIND       PRES   REMARKS
AMES           CLOUDY    41  41 100 E13       29.79F
ANKENY *       CLOUDY    43  41  93 E14G20    29.78F
BOONE *        CLOUDY    41  41 100 E20G26    29.77F
CHARITON *     LGT RAIN  43  41  93 NE7       29.74F
DES MOINES     LGT RAIN  44  41  89 E14G24    29.75F
GRINNELL*      CLOUDY    41  39  93 E16       29.79R
MARSHALLTOWN   CLOUDY    41  40  96 E16G26    29.79S
NEWTON *       CLOUDY    43  41  93 E15G22    29.77S
PELLA *        RAIN      42  41  98 E8        29.79R
PERRY *        CLOUDY    42  40  94 E16G24    29.75F FOG
$$

IAZ004>006-015-016-023>025-035-036-300900-
   NORTH CENTRAL IOWA

CITY           SKY/WX    TMP DP  RH WIND       PRES   REMARKS
ALGONA *       MIX PCPN  39  39 100 E12G18    29.87F WCI  32
CLARION *      CLOUDY    39  39 100 E20       29.84F FOG     WCI  30
ESTHERVILLE    MIX PCPN  37  36  96 E21       29.89F WCI  26
FORT DODGE *   CLOUDY    39  36  87 E18       29.82F WCI  30
MASON CITY     CLOUDY    38  36  92 E14       29.89S FOG     WCI  30
FOREST CITY *  CLOUDY    37  36  93 E12G18    29.88F WCI  30
WEBSTER CITY * CLOUDY    39  39 100 E22       29.79F FOG     WCI  29
IOWA FALLS *   CLOUDY    40  39  94 E21       29.83F WCI  31
$$

IAZ007>011-017>019-026>030-037>042-050>054-066-300900-
   NORTHEAST IOWA

CITY           SKY/WX    TMP DP  RH WIND       PRES   REMARKS
CEDAR RAPIDS   LGT RAIN  41  41 100 E21G36    29.76F
CHARLES CITY * CLOUDY    39  39 100 E20G26    29.87F WCI  30
CLINTON *      RAIN      42  40  92 E23       29.81F
DECORAH *      CLOUDY    37  36  93 E17       29.89R WCI  28
DUBUQUE        LGT RAIN  40  38  93 E16       29.86F FOG     WCI  31
MONTICELLO *   CLOUDY    41  39  93 E16G23    29.81F
OELWEIN *      CLOUDY    41  39  93 E17G25    29.84F
WATERLOO       CLOUDY    41  37  86 E20G25    29.82F
$$

IAZ064-065-067-068-078-300900-
   EAST CENTRAL IOWA

CITY           SKY/WX    TMP DP  RH WIND       PRES   REMARKS
DAVENPORT      RAIN      42  40  92 E24       29.80F FOG
IOWA CITY      LGT RAIN  44  40  85 E17G23    29.78F
MUSCATINE *    MIX PCPN  45  43  93 E14G21    29.78S
QUAD CITIES    RAIN      43  40  89 E21G32    29.80F
$$

IAZ062-063-075>077-085>089-095>099-300900-
   SOUTHEAST IOWA

CITY           SKY/WX    TMP DP  RH WIND       PRES   REMARKS
BURLINGTON     CLOUDY    47  47 100 NE13      29.71F
FAIRFIELD *    CLOUDY    45  43  93 NE18G24   29.70F
FORT MADISON * CLOUDY    48  46  93 NE12      29.69F FOG
KEOKUK *       CLOUDY    50  50 100 NE14      29.66F
OSKALOOSA *    LGT SNOW  41  40  97 E18G25    29.74R
CENTERVILLE *  MOCLDY    45  45 100 N5        29.73R
OTTUMWA        TSTM      44  43  96 E15       29.76R FOG
WASHINGTON *   CLOUDY    45  43  93 E15       29.75F FOG
$$

ABBREVIATIONS USED IN REMARKS
   TC - TEMPERATURES IN CELSIUS
  WCI - WIND CHILL INDEX
   HX - HEAT INDEX
  VSB - VISIBILITY
$$





USA.gov is the U.S. government's official web portal to all federal, state and local government web resources and services.